QPF
0.01 0.02 0.01 0.01 0.01 0.01 0.02 0.03 0.05 0.04 0.03 0.04 0.06 0.06 0.03 0.01 0.01 0.01 0.02 0.06 0.06 0.05 0.07 0.08 0.07 0.05 0.04 0.04 0.03 0.04 0.05 0.06 0.06 0.08 0.07 0.07 0.08 0.09 0.09 0.09 0.08 0.09 0.09 0.08 0.08 0.09 0.09 0.08 0.07
0.02 0.02 0.01 0.01 0.01 0.01 0.02 0.03 0.03 0.03 0.02 0.02 0.04 0.04 0.03 0.02 0.02 0.03 0.02 0.06 0.05 0.03 0.02 0.03 0.04 0.04 0.03 0.03 0.03 0.03 0.04 0.04 0.04 0.05 0.05 0.06 0.06 0.08 0.10 0.11 0.10 0.10 0.09 0.08 0.08 0.08 0.07 0.07 0.05
0.02 0.02 0.02 0.01 0.01 0.01 0.03 0.04 0.03 0.02 0.02 0.02 0.01 0.02 0.03 0.03 0.04 0.03 0.02 0.04 0.05 0.04 0.03 0.02 0.02 0.03 0.03 0.03 0.03 0.02 0.03 0.04 0.04 0.03 0.04 0.05 0.06 0.07 0.09 0.10 0.10 0.10 0.08 0.08 0.08 0.07 0.06 0.06 0.05
0.02 0.01 0.02 0.02 0.01 0.03 0.05 0.04 0.02 0.01 0.02 0.02 0.01 0.03 0.05 0.06 0.04 0.03 0.03 0.04 0.04 0.04 0.04 0.02 0.02 0.02 0.02 0.02 0.02 0.02 0.03 0.04 0.04 0.04 0.04 0.05 0.07 0.08 0.08 0.07 0.10 0.10 0.08 0.08 0.07 0.06 0.05 0.04 0.05
0.01 0.02 0.02 0.02 0.02 0.04 0.05 0.03 0.01 0.01 0.01 0.02 0.03 0.05 0.09 0.09 0.04 0.02 0.03 0.04 0.03 0.03 0.03 0.02 0.03 0.03 0.03 0.02 0.02 0.03 0.05 0.04 0.04 0.04 0.06 0.07 0.07 0.07 0.06 0.08 0.10 0.10 0.10 0.09 0.07 0.05 0.04 0.03 0.04
0.01 0.01 0.02 0.03 0.05 0.04 0.04 0.03 0.02 0.02 0.01 0.01 0.02 0.04 0.08 0.08 0.04 0.01 0.01 0.01 0.01 0.01 0.01 0.03 0.05 0.04 0.02 0.01 0.02 0.03 0.05 0.05 0.05 0.06 0.05 0.06 0.06 0.06 0.06 0.07 0.09 0.11 0.10 0.08 0.07 0.05 0.03 0.03 0.03
0.00 0.00 0.01 0.02 0.04 0.05 0.03 0.01 0.01 0.02 0.01 0.02 0.01 0.02 0.04 0.05 0.04 0.02 0.01 0.01 0.01 0.02 0.02 0.02 0.04 0.03 0.03 0.02 0.02 0.04 0.05 0.05 0.05 0.05 0.05 0.06 0.07 0.07 0.08 0.08 0.09 0.10 0.08 0.08 0.09 0.07 0.05 0.04 0.03
0.00 0.00 0.01 0.01 0.02 0.02 0.03 0.01 0.01 0.02 0.02 0.03 0.01 0.02 0.03 0.03 0.03 0.03 0.03 0.02 0.02 0.03 0.02 0.02 0.02 0.02 0.01 0.02 0.04 0.06 0.05 0.05 0.05 0.05 0.06 0.07 0.07 0.06 0.06 0.07 0.09 0.10 0.09 0.12 0.12 0.08 0.06 0.05 0.05
0.00 0.00 0.00 0.00 0.01 0.01 0.01 0.02 0.01 0.01 0.03 0.04 0.03 0.02 0.03 0.02 0.02 0.03 0.03 0.03 0.03 0.02 0.01 0.01 0.03 0.03 0.02 0.02 0.04 0.06 0.06 0.06 0.06 0.05 0.06 0.06 0.05 0.04 0.04 0.06 0.09 0.09 0.10 0.16 0.13 0.10 0.08 0.07 0.06
0.00 0.00 0.00 0.00 0.00 0.00 0.00 0.01 0.01 0.02 0.02 0.04 0.02 0.03 0.02 0.01 0.01 0.02 0.03 0.03 0.02 0.02 0.02 0.03 0.04 0.04 0.02 0.01 0.02 0.03 0.03 0.03 0.04 0.05 0.05 0.04 0.05 0.05 0.04 0.08 0.10 0.12 0.11 0.12 0.11 0.10 0.08 0.06 0.04
0.00 0.00 0.00 0.01 0.01 0.00 0.00 0.01 0.01 0.02 0.03 0.03 0.02 0.02 0.02 0.01 0.02 0.03 0.02 0.01 0.02 0.02 0.02 0.02 0.03 0.03 0.03 0.03 0.03 0.03 0.02 0.03 0.03 0.03 0.02 0.04 0.05 0.06 0.06 0.07 0.07 0.06 0.06 0.05 0.07 0.07 0.04 0.03 0.05
0.00 0.00 0.00 0.00 0.01 0.01 0.00 0.01 0.01 0.03 0.03 0.02 0.02 0.01 0.02 0.01 0.02 0.02 0.02 0.01 0.01 0.02 0.02 0.01 0.01 0.02 0.03 0.03 0.03 0.02 0.02 0.03 0.04 0.04 0.02 0.04 0.05 0.07 0.07 0.06 0.06 0.05 0.03 0.02 0.02 0.03 0.03 0.03 0.04
0.01 0.00 0.00 0.00 0.00 0.01 0.00 0.01 0.01 0.03 0.03 0.03 0.02 0.01 0.01 0.02 0.02 0.02 0.01 0.01 0.02 0.01 0.02 0.02 0.01 0.02 0.02 0.02 0.02 0.03 0.03 0.04 0.05 0.05 0.04 0.04 0.06 0.06 0.08 0.09 0.10 0.07 0.04 0.03 0.04 0.06 0.05 0.05 0.05
0.00 0.00 0.00 0.00 0.01 0.00 0.00 0.01 0.01 0.02 0.02 0.02 0.01 0.01 0.02 0.02 0.02 0.01 0.01 0.01 0.01 0.01 0.01 0.02 0.03 0.03 0.02 0.02 0.02 0.04 0.06 0.08 0.07 0.07 0.07 0.07 0.08 0.09 0.11 0.15 0.13 0.08 0.04 0.04 0.06 0.06 0.05 0.05 0.05
0.01 0.00 0.00 0.00 0.01 0.00 0.00 0.00 0.01 0.02 0.02 0.01 0.01 0.01 0.01 0.01 0.01 0.02 0.02 0.02 0.01 0.01 0.01 0.02 0.03 0.03 0.03 0.03 0.04 0.06 0.09 0.09 0.08 0.08 0.09 0.11 0.13 0.13 0.13 0.12 0.10 0.08 0.06 0.05 0.04 0.03 0.03 0.03 0.04
0.01 0.01 0.01 0.01 0.01 0.00 0.00 0.00 0.00 0.00 0.01 0.01 0.01 0.01 0.01 0.01 0.01 0.01 0.01 0.01 0.01 0.01 0.01 0.02 0.02 0.03 0.04 0.04 0.06 0.08 0.10 0.08 0.09 0.11 0.13 0.14 0.14 0.14 0.12 0.10 0.08 0.07 0.06 0.04 0.04 0.03 0.02 0.02 0.02
0.00 0.00 0.00 0.01 0.01 0.00 0.00 0.00 0.00 0.00 0.00 0.01 0.01 0.01 0.01 0.00 0.01 0.01 0.01 0.02 0.01 0.01 0.02 0.02 0.02 0.03 0.04 0.05 0.06 0.07 0.09 0.11 0.14 0.14 0.16 0.16 0.16 0.15 0.12 0.10 0.07 0.05 0.05 0.04 0.04 0.03 0.02 0.02 0.01
0.00 0.00 0.00 0.00 0.00 0.00 0.00 0.00 0.00 0.00 0.00 0.00 0.00 0.00 0.00 0.00 0.01 0.01 0.02 0.03 0.04 0.02 0.01 0.02 0.03 0.04 0.05 0.05 0.05 0.08 0.11 0.15 0.16 0.14 0.18 0.17 0.15 0.14 0.12 0.09 0.06 0.05 0.06 0.04 0.04 0.03 0.03 0.02 0.01
0.00 0.00 0.00 0.00 0.00 0.00 0.00 0.00 0.00 0.00 0.00 0.00 0.00 0.00 0.00 0.00 0.01 0.01 0.02 0.04 0.10 0.04 0.01 0.02 0.02 0.03 0.04 0.04 0.04 0.08 0.13 0.15 0.14 0.16 0.20 0.15 0.10 0.08 0.07 0.07 0.05 0.05 0.04 0.03 0.03 0.03 0.02 0.02 0.03
0.00 0.00 0.00 0.00 0.00 0.00 0.00 0.00 0.00 0.00 0.00 0.00 0.00 0.00 0.00 0.00 0.01 0.01 0.01 0.01 0.02 0.01 0.00 0.02 0.02 0.01 0.02 0.02 0.03 0.05 0.07 0.08 0.10 0.13 0.10 0.06 0.05 0.03 0.04 0.05 0.04 0.06 0.06 0.05 0.04 0.03 0.02 0.03 0.03
0.00 0.00 0.00 0.00 0.00 0.00 0.01 0.01 0.01 0.01 0.01 0.01 0.00 0.00 0.00 0.00 0.01 0.01 0.01 0.01 0.01 0.01 0.02 0.02 0.02 0.02 0.01 0.01 0.01 0.02 0.02 0.04 0.05 0.04 0.02 0.02 0.03 0.03 0.03 0.03 0.03 0.03 0.04 0.04 0.04 0.03 0.02 0.02 0.03
0.00 0.00 0.00 0.00 0.00 0.00 0.00 0.00 0.00 0.01 0.01 0.01 0.01 0.00 0.00 0.01 0.01 0.01 0.01 0.02 0.02 0.03 0.03 0.03 0.02 0.01 0.01 0.00 0.00 0.01 0.02 0.02 0.02 0.01 0.01 0.01 0.01 0.02 0.02 0.01 0.02 0.02 0.03 0.03 0.04 0.03 0.03 0.03 0.03
0.00 0.00 0.00 0.00 0.01 0.01 0.00 0.00 0.00 0.00 0.00 0.00 0.00 0.00 0.00 0.00 0.01 0.01 0.02 0.03 0.04 0.04 0.05 0.05 0.03 0.01 0.01 0.01 0.01 0.01 0.01 0.01 0.01 0.01 0.01 0.00 0.01 0.01 0.01 0.01 0.01 0.02 0.02 0.03 0.04 0.04 0.04 0.05 0.06
0.00 0.01 0.01 0.01 0.02 0.02 0.01 0.00 0.00 0.00 0.00 0.00 0.00 0.00 0.00 0.00 0.00 0.01 0.03 0.04 0.05 0.05 0.07 0.08 0.04 0.02 0.02 0.02 0.02 0.01 0.01 0.00 0.00 0.01 0.01 0.00 0.00 0.00 0.00 0.01 0.01 0.01 0.01 0.02 0.02 0.03 0.03 0.04 0.05
0.01 0.01 0.01 0.02 0.02 0.01 0.01 0.01 0.00 0.00 0.00 0.00 0.00 0.00 0.00 0.00 0.01 0.02 0.04 0.05 0.06 0.06 0.08 0.09 0.05 0.03 0.03 0.02 0.03 0.02 0.01 0.01 0.00 0.01 0.01 0.01 0.01 0.01 0.01 0.01 0.01 0.00 0.01 0.01 0.02 0.02 0.03 0.03 0.03
0.01 0.01 0.01 0.01 0.01 0.01 0.01 0.00 0.00 0.00 0.00 0.00 0.00 0.00 0.00 0.00 0.01 0.02 0.04 0.05 0.05 0.04 0.05 0.06 0.04 0.03 0.04 0.03 0.02 0.02 0.02 0.02 0.01 0.01 0.01 0.02 0.02 0.02 0.03 0.03 0.03 0.02 0.02 0.02 0.03 0.03 0.03 0.03 0.03
0.00 0.00 0.01 0.02 0.01 0.01 0.01 0.00 0.00 0.00 0.00 0.00 0.00 0.00 0.00 0.00 0.01 0.02 0.03 0.04 0.03 0.03 0.05 0.09 0.04 0.02 0.02 0.02 0.03 0.02 0.02 0.02 0.01 0.01 0.01 0.01 0.01 0.02 0.03 0.03 0.03 0.03 0.03 0.05 0.05 0.04 0.04 0.04 0.04
0.00 0.00 0.01 0.02 0.02 0.01 0.01 0.00 0.00 0.00 0.00 0.00 0.00 0.00 0.00 0.00 0.01 0.02 0.03 0.03 0.03 0.03 0.05 0.06 0.02 0.02 0.02 0.02 0.02 0.03 0.04 0.03 0.02 0.02 0.01 0.01 0.01 0.01 0.01 0.02 0.02 0.02 0.03 0.04 0.04 0.03 0.04 0.04 0.04
0.00 0.00 0.01 0.01 0.01 0.01 0.00 0.00 0.00 0.00 0.00 0.00 0.00 0.00 0.00 0.01 0.04 0.06 0.04 0.02 0.04 0.05 0.02 0.01 0.01 0.01 0.02 0.02 0.04 0.08 0.09 0.05 0.03 0.02 0.01 0.01 0.01 0.01 0.01 0.02 0.02 0.02 0.03 0.03 0.02 0.02 0.03 0.02 0.02
0.00 0.00 0.00 0.01 0.01 0.01 0.00 0.00 0.00 0.00 0.00 0.00 0.00 0.00 0.01 0.01 0.01 0.03 0.02 0.01 0.02 0.02 0.02 0.02 0.02 0.02 0.02 0.03 0.04 0.05 0.04 0.03 0.03 0.02 0.01 0.01 0.01 0.01 0.01 0.02 0.01 0.01 0.02 0.03 0.02 0.02 0.02 0.02 0.02
MSLP
1004.31 1005.69 1007.26 1008.82 1010.22 1011.33 1012.09 1012.50 1012.64 1012.62 1012.57 1012.58 1012.72 1012.97 1013.28 1013.57 1013.75 1013.76 1013.58 1013.24 1012.80 1012.36 1012.01 1011.81 1011.79 1011.95 1012.23 1012.57 1012.92 1013.22 1013.46 1013.64 1013.77 1013.91 1014.05 1014.23 1014.42 1014.62 1014.79 1014.92 1014.99 1015.01 1015.01 1015.00 1015.01 1015.07 1015.16 1015.28 1015.42
1004.77 1006.36 1008.06 1009.68 1011.04 1012.03 1012.60 1012.79 1012.71 1012.48 1012.28 1012.19 1012.28 1012.53 1012.87 1013.22 1013.46 1013.54 1013.43 1013.15 1012.79 1012.42 1012.14 1012.01 1012.06 1012.27 1012.59 1012.96 1013.32 1013.62 1013.85 1014.01 1014.14 1014.26 1014.40 1014.56 1014.73 1014.91 1015.05 1015.15 1015.20 1015.21 1015.20 1015.19 1015.21 1015.27 1015.37 1015.50 1015.63
1005.39 1007.14 1008.92 1010.53 1011.80 1012.63 1013.00 1012.98 1012.69 1012.30 1011.98 1011.82 1011.89 1012.14 1012.52 1012.91 1013.21 1013.33 1013.28 1013.06 1012.76 1012.46 1012.26 1012.20 1012.31 1012.57 1012.93 1013.31 1013.67 1013.97 1014.18 1014.34 1014.45 1014.56 1014.67 1014.81 1014.97 1015.11 1015.23 1015.31 1015.35 1015.36 1015.36 1015.37 1015.41 1015.48 1015.59 1015.72 1015.84
1006.09 1007.93 1009.73 1011.27 1012.42 1013.08 1013.26 1013.07 1012.63 1012.14 1011.75 1011.57 1011.64 1011.92 1012.32 1012.74 1013.07 1013.23 1013.20 1013.03 1012.78 1012.55 1012.41 1012.41 1012.57 1012.86 1013.23 1013.62 1013.97 1014.24 1014.44 1014.58 1014.68 1014.77 1014.87 1015.00 1015.13 1015.26 1015.36 1015.43 1015.46 1015.48 1015.49 1015.53 1015.59 1015.69 1015.80 1015.93 1016.05
1006.75 1008.62 1010.37 1011.81 1012.81 1013.32 1013.36 1013.05 1012.54 1012.02 1011.64 1011.49 1011.59 1011.90 1012.33 1012.76 1013.09 1013.26 1013.25 1013.10 1012.90 1012.71 1012.61 1012.66 1012.85 1013.15 1013.52 1013.88 1014.20 1014.45 1014.62 1014.74 1014.82 1014.91 1015.01 1015.12 1015.25 1015.36 1015.45 1015.51 1015.55 1015.57 1015.61 1015.66 1015.75 1015.86 1015.99 1016.11 1016.21
1007.27 1009.10 1010.75 1012.06 1012.92 1013.30 1013.25 1012.90 1012.40 1011.93 1011.62 1011.54 1011.71 1012.06 1012.51 1012.94 1013.26 1013.42 1013.41 1013.28 1013.10 1012.95 1012.89 1012.96 1013.15 1013.44 1013.77 1014.10 1014.37 1014.58 1014.72 1014.83 1014.91 1015.00 1015.10 1015.22 1015.34 1015.45 1015.53 1015.59 1015.62 1015.65 1015.69 1015.77 1015.87 1015.99 1016.11 1016.22 1016.30
1007.57 1009.31 1010.82 1011.97 1012.70 1012.99 1012.92 1012.60 1012.18 1011.82 1011.64 1011.67 1011.92 1012.32 1012.78 1013.21 1013.51 1013.65 1013.64 1013.53 1013.37 1013.25 1013.22 1013.30 1013.48 1013.74 1014.02 1014.28 1014.50 1014.67 1014.78 1014.87 1014.96 1015.06 1015.19 1015.32 1015.45 1015.55 1015.62 1015.66 1015.68 1015.70 1015.75 1015.82 1015.93 1016.06 1016.18 1016.28 1016.34
1007.66 1009.25 1010.60 1011.60 1012.21 1012.45 1012.39 1012.15 1011.87 1011.67 1011.63 1011.79 1012.13 1012.58 1013.05 1013.46 1013.75 1013.87 1013.87 1013.77 1013.66 1013.57 1013.57 1013.65 1013.82 1014.03 1014.26 1014.46 1014.61 1014.73 1014.82 1014.90 1015.01 1015.13 1015.28 1015.42 1015.56 1015.65 1015.71 1015.73 1015.73 1015.73 1015.77 1015.84 1015.95 1016.08 1016.21 1016.30 1016.36
1007.59 1009.02 1010.20 1011.05 1011.57 1011.78 1011.77 1011.63 1011.49 1011.46 1011.57 1011.86 1012.27 1012.76 1013.23 1013.62 1013.88 1014.01 1014.02 1013.96 1013.89 1013.85 1013.88 1013.98 1014.13 1014.31 1014.48 1014.61 1014.71 1014.79 1014.86 1014.94 1015.06 1015.21 1015.38 1015.54 1015.68 1015.77 1015.80 1015.79 1015.77 1015.75 1015.77 1015.84 1015.95 1016.09 1016.24 1016.35 1016.41
1007.50 1008.76 1009.77 1010.49 1010.92 1011.12 1011.16 1011.13 1011.13 1011.24 1011.48 1011.85 1012.31 1012.80 1013.26 1013.62 1013.87 1014.00 1014.03 1014.03 1014.02 1014.04 1014.12 1014.24 1014.39 1014.54 1014.66 1014.75 1014.81 1014.86 1014.91 1015.00 1015.14 1015.31 1015.49 1015.67 1015.80 1015.88 1015.89 1015.85 1015.80 1015.77 1015.78 1015.85 1015.99 1016.16 1016.33 1016.48 1016.57
1007.52 1008.62 1009.48 1010.08 1010.44 1010.62 1010.70 1010.76 1010.86 1011.07 1011.39 1011.80 1012.26 1012.73 1013.15 1013.47 1013.70 1013.83 1013.90 1013.95 1014.01 1014.10 1014.24 1014.39 1014.55 1014.69 1014.80 1014.86 1014.89 1014.93 1014.98 1015.08 1015.23 1015.41 1015.61 1015.79 1015.91 1015.97 1015.96 1015.90 1015.84 1015.80 1015.83 1015.93 1016.10 1016.31 1016.54 1016.75 1016.89
1007.75 1008.72 1009.44 1009.94 1010.24 1010.40 1010.51 1010.61 1010.78 1011.03 1011.36 1011.76 1012.18 1012.59 1012.94 1013.22 1013.41 1013.55 1013.65 1013.75 1013.87 1014.02 1014.21 1014.41 1014.60 1014.75 1014.86 1014.92 1014.96 1015.00 1015.07 1015.18 1015.33 1015.52 1015.72 1015.88 1016.00 1016.04 1016.02 1015.96 1015.90 1015.89 1015.94 1016.09 1016.32 1016.60 1016.90 1017.17 1017.38
1008.23 1009.09 1009.71 1010.12 1010.36 1010.51 1010.61 1010.73 1010.91 1011.15 1011.45 1011.79 1012.13 1012.45 1012.71 1012.92 1013.07 1013.20 1013.31 1013.45 1013.62 1013.82 1014.06 1014.30 1014.52 1014.71 1014.84 1014.93 1015.00 1015.07 1015.16 1015.28 1015.45 1015.63 1015.81 1015.96 1016.05 1016.09 1016.07 1016.03 1016.00 1016.03 1016.14 1016.35 1016.65 1017.01 1017.39 1017.73 1018.01
1008.92 1009.69 1010.23 1010.57 1010.78 1010.90 1010.99 1011.09 1011.24 1011.43 1011.65 1011.90 1012.13 1012.35 1012.52 1012.65 1012.76 1012.86 1012.97 1013.12 1013.31 1013.55 1013.81 1014.08 1014.34 1014.57 1014.76 1014.91 1015.03 1015.14 1015.26 1015.41 1015.57 1015.73 1015.89 1016.01 1016.08 1016.11 1016.11 1016.10 1016.13 1016.22 1016.41 1016.69 1017.07 1017.51 1017.96 1018.37 1018.70
1009.70 1010.39 1010.86 1011.16 1011.34 1011.44 1011.52 1011.59 1011.68 1011.80 1011.93 1012.07 1012.19 1012.30 1012.39 1012.45 1012.52 1012.59 1012.69 1012.83 1013.02 1013.25 1013.52 1013.82 1014.11 1014.39 1014.64 1014.86 1015.05 1015.23 1015.39 1015.55 1015.71 1015.85 1015.96 1016.05 1016.10 1016.13 1016.15 1016.19 1016.28 1016.45 1016.72 1017.08 1017.53 1018.02 1018.53 1018.98 1019.36
1010.38 1011.01 1011.44 1011.72 1011.89 1012.00 1012.06 1012.10 1012.14 1012.17 1012.21 1012.24 1012.26 1012.28 1012.30 1012.33 1012.36 1012.41 1012.50 1012.62 1012.79 1013.01 1013.27 1013.56 1013.88 1014.20 1014.52 1014.82 1015.10 1015.35 1015.56 1015.73 1015.88 1015.98 1016.05 1016.10 1016.12 1016.15 1016.19 1016.28 1016.45 1016.69 1017.03 1017.46 1017.95 1018.48 1019.01 1019.49 1019.88
1010.82 1011.40 1011.82 1012.11 1012.31 1012.43 1012.50 1012.52 1012.50 1012.46 1012.40 1012.33 1012.27 1012.24 1012.22 1012.23 1012.27 1012.33 1012.41 1012.52 1012.67 1012.86 1013.09 1013.37 1013.70 1014.07 1014.45 1014.83 1015.19 1015.51 1015.77 1015.96 1016.08 1016.15 1016.17 1016.17 1016.16 1016.18 1016.25 1016.39 1016.61 1016.92 1017.31 1017.78 1018.29 1018.83 1019.35 1019.82 1020.21
1010.93 1011.48 1011.92 1012.27 1012.53 1012.70 1012.79 1012.80 1012.72 1012.60 1012.44 1012.29 1012.17 1012.09 1012.08 1012.11 1012.19 1012.29 1012.40 1012.53 1012.66 1012.83 1013.03 1013.30 1013.63 1014.02 1014.46 1014.91 1015.34 1015.72 1016.02 1016.23 1016.33 1016.36 1016.33 1016.28 1016.24 1016.24 1016.32 1016.49 1016.76 1017.11 1017.54 1018.02 1018.52 1019.03 1019.51 1019.95 1020.32
1010.72 1011.28 1011.79 1012.23 1012.59 1012.84 1012.96 1012.95 1012.82 1012.59 1012.33 1012.09 1011.91 1011.81 1011.82 1011.91 1012.07 1012.25 1012.44 1012.60 1012.76 1012.91 1013.10 1013.34 1013.67 1014.07 1014.54 1015.05 1015.54 1015.97 1016.31 1016.52 1016.61 1016.60 1016.53 1016.43 1016.36 1016.35 1016.43 1016.62 1016.91 1017.28 1017.71 1018.17 1018.64 1019.09 1019.52 1019.90 1020.24
1010.26 1010.90 1011.53 1012.11 1012.60 1012.95 1013.11 1013.07 1012.85 1012.51 1012.11 1011.75 1011.49 1011.38 1011.42 1011.59 1011.86 1012.17 1012.46 1012.71 1012.92 1013.09 1013.27 1013.50 1013.81 1014.21 1014.69 1015.23 1015.76 1016.23 1016.60 1016.82 1016.91 1016.87 1016.76 1016.63 1016.52 1016.50 1016.57 1016.76 1017.06 1017.42 1017.83 1018.25 1018.67 1019.05 1019.41 1019.73 1020.03
1009.72 1010.48 1011.29 1012.06 1012.72 1013.17 1013.36 1013.27 1012.93 1012.42 1011.85 1011.34 1010.97 1010.81 1010.88 1011.14 1011.54 1011.99 1012.43 1012.80 1013.09 1013.31 1013.50 1013.72 1014.00 1014.39 1014.87 1015.41 1015.97 1016.47 1016.86 1017.10 1017.19 1017.15 1017.02 1016.87 1016.74 1016.70 1016.77 1016.95 1017.22 1017.57 1017.94 1018.31 1018.65 1018.96 1019.23 1019.49 1019.76
1009.25 1010.20 1011.23 1012.22 1013.05 1013.60 1013.80 1013.63 1013.14 1012.42 1011.63 1010.92 1010.41 1010.17 1010.24 1010.57 1011.10 1011.71 1012.31 1012.82 1013.22 1013.51 1013.73 1013.94 1014.21 1014.57 1015.03 1015.57 1016.12 1016.64 1017.06 1017.33 1017.44 1017.41 1017.29 1017.14 1017.01 1016.96 1017.01 1017.17 1017.42 1017.73 1018.05 1018.36 1018.63 1018.86 1019.06 1019.27 1019.50
1008.96 1010.13 1011.40 1012.62 1013.63 1014.27 1014.45 1014.18 1013.49 1012.54 1011.50 1010.55 1009.86 1009.51 1009.56 1009.94 1010.58 1011.34 1012.10 1012.77 1013.29 1013.66 1013.92 1014.14 1014.39 1014.72 1015.14 1015.65 1016.21 1016.74 1017.18 1017.49 1017.64 1017.65 1017.56 1017.43 1017.31 1017.25 1017.29 1017.43 1017.65 1017.92 1018.18 1018.43 1018.63 1018.80 1018.94 1019.10 1019.29
1008.88 1010.28 1011.78 1013.21 1014.36 1015.06 1015.22 1014.82 1013.94 1012.74 1011.44 1010.25 1009.37 1008.90 1008.90 1009.31 1010.04 1010.93 1011.83 1012.64 1013.28 1013.74 1014.04 1014.27 1014.50 1014.80 1015.19 1015.68 1016.22 1016.76 1017.23 1017.58 1017.79 1017.85 1017.81 1017.71 1017.62 1017.57 1017.60 1017.72 1017.90 1018.12 1018.34 1018.53 1018.69 1018.80 1018.90 1019.01 1019.17
1008.98 1010.56 1012.25 1013.83 1015.08 1015.81 1015.92 1015.40 1014.34 1012.92 1011.40 1010.01 1008.96 1008.38 1008.32 1008.74 1009.53 1010.52 1011.54 1012.47 1013.21 1013.74 1014.10 1014.34 1014.56 1014.83 1015.19 1015.65 1016.17 1016.72 1017.22 1017.63 1017.89 1018.02 1018.04 1017.99 1017.93 1017.89 1017.92 1018.01 1018.16 1018.34 1018.52 1018.68 1018.79 1018.87 1018.94 1019.02 1019.16
1009.14 1010.83 1012.62 1014.28 1015.56 1016.28 1016.34 1015.72 1014.54 1012.99 1011.32 1009.79 1008.63 1007.97 1007.87 1008.29 1009.11 1010.16 1011.27 1012.28 1013.10 1013.70 1014.10 1014.36 1014.58 1014.83 1015.16 1015.60 1016.12 1016.68 1017.21 1017.65 1017.98 1018.17 1018.25 1018.25 1018.22 1018.19 1018.21 1018.29 1018.41 1018.56 1018.72 1018.84 1018.94 1019.01 1019.06 1019.14 1019.25
1009.26 1010.95 1012.73 1014.36 1015.61 1016.29 1016.30 1015.64 1014.41 1012.81 1011.10 1009.54 1008.36 1007.68 1007.58 1008.00 1008.84 1009.92 1011.07 1012.13 1013.00 1013.64 1014.08 1014.36 1014.59 1014.83 1015.15 1015.58 1016.10 1016.66 1017.21 1017.70 1018.07 1018.31 1018.44 1018.48 1018.48 1018.47 1018.48 1018.55 1018.65 1018.78 1018.92 1019.04 1019.14 1019.21 1019.28 1019.34 1019.45
1009.26 1010.82 1012.47 1013.98 1015.12 1015.73 1015.71 1015.05 1013.86 1012.33 1010.71 1009.24 1008.12 1007.51 1007.44 1007.88 1008.72 1009.80 1010.95 1012.02 1012.92 1013.59 1014.06 1014.37 1014.62 1014.88 1015.20 1015.63 1016.14 1016.71 1017.27 1017.78 1018.18 1018.46 1018.63 1018.70 1018.72 1018.71 1018.73 1018.78 1018.87 1019.00 1019.14 1019.27 1019.39 1019.48 1019.56 1019.64 1019.74
1009.11 1010.42 1011.82 1013.11 1014.09 1014.59 1014.55 1013.96 1012.91 1011.56 1010.14 1008.87 1007.93 1007.44 1007.44 1007.91 1008.75 1009.81 1010.93 1011.98 1012.86 1013.55 1014.04 1014.40 1014.68 1014.97 1015.33 1015.76 1016.28 1016.84 1017.41 1017.92 1018.33 1018.63 1018.81 1018.90 1018.93 1018.93 1018.95 1019.00 1019.10 1019.22 1019.38 1019.53 1019.68 1019.80 1019.91 1020.01 1020.11
1008.84 1009.82 1010.89 1011.88 1012.64 1013.03 1012.99 1012.51 1011.66 1010.58 1009.45 1008.46 1007.76 1007.44 1007.55 1008.06 1008.88 1009.88 1010.94 1011.94 1012.80 1013.49 1014.02 1014.42 1014.76 1015.11 1015.50 1015.96 1016.49 1017.05 1017.60 1018.10 1018.50 1018.80 1018.99 1019.09 1019.12 1019.14 1019.17 1019.23 1019.33 1019.48 1019.65 1019.83 1020.01 1020.17 1020.30 1020.42 1020.53
Thickness
5831 5828 5823 5810 5786 5762 5753 5762 5771 5768 5769 5776 5779 5774 5764 5757 5752 5747 5766 5774 5774 5774 5774 5774 5774 5774 5773 5773 5773 5773 5773 5773 5772 5772 5772 5771 5770 5769 5768 5767 5766 5766 5765 5763 5762 5760 5759 5758 5756
5834 5829 5818 5800 5769 5744 5749 5765 5766 5770 5775 5781 5780 5774 5766 5761 5766 5765 5769 5773 5775 5774 5773 5773 5773 5772 5772 5772 5772 5772 5772 5771 5771 5770 5770 5769 5768 5767 5766 5765 5764 5764 5763 5762 5760 5759 5757 5756 5754
5835 5830 5808 5786 5763 5749 5753 5766 5769 5777 5783 5782 5775 5773 5766 5762 5767 5768 5772 5775 5774 5773 5772 5772 5772 5771 5771 5770 5771 5770 5770 5770 5769 5769 5768 5767 5766 5765 5764 5763 5762 5762 5761 5760 5758 5757 5755 5754 5753
5832 5818 5802 5777 5762 5767 5769 5772 5777 5777 5780 5781 5775 5766 5769 5774 5773 5773 5775 5775 5773 5772 5772 5771 5771 5770 5770 5769 5769 5769 5769 5769 5768 5767 5766 5765 5764 5764 5763 5762 5761 5759 5758 5757 5756 5754 5753 5752 5751
5829 5807 5782 5765 5766 5774 5778 5781 5782 5775 5774 5776 5773 5762 5762 5773 5777 5776 5774 5773 5771 5771 5771 5770 5770 5769 5769 5769 5768 5768 5768 5767 5766 5765 5764 5763 5763 5762 5761 5760 5759 5758 5756 5755 5754 5753 5752 5751 5750
5815 5798 5768 5758 5766 5776 5780 5784 5781 5775 5774 5775 5771 5762 5761 5772 5774 5773 5774 5772 5771 5770 5770 5769 5769 5769 5768 5768 5767 5767 5767 5766 5765 5764 5763 5762 5762 5761 5760 5758 5757 5756 5755 5754 5752 5751 5750 5749 5749
5807 5788 5770 5768 5767 5772 5780 5786 5779 5774 5772 5774 5776 5762 5762 5769 5773 5774 5773 5772 5770 5770 5769 5768 5768 5768 5767 5767 5767 5766 5766 5765 5764 5763 5762 5761 5761 5760 5759 5758 5756 5755 5754 5752 5751 5750 5749 5748 5747
5817 5792 5774 5770 5769 5772 5784 5787 5784 5780 5776 5784 5781 5764 5760 5769 5775 5774 5772 5770 5769 5769 5769 5768 5768 5767 5767 5766 5766 5765 5765 5764 5763 5762 5761 5760 5760 5758 5758 5756 5756 5754 5753 5752 5750 5749 5748 5747 5746
5823 5786 5769 5774 5775 5778 5788 5784 5786 5790 5784 5783 5783 5777 5776 5777 5775 5771 5768 5767 5767 5768 5768 5768 5767 5766 5766 5765 5764 5764 5764 5762 5761 5761 5760 5759 5758 5757 5757 5755 5755 5754 5753 5751 5750 5749 5748 5746 5746
5810 5780 5782 5793 5794 5790 5790 5787 5786 5783 5776 5775 5777 5779 5780 5777 5773 5768 5765 5764 5764 5765 5767 5768 5767 5766 5765 5765 5764 5763 5762 5761 5760 5759 5759 5758 5757 5756 5755 5754 5754 5753 5752 5750 5749 5748 5747 5745 5744
5809 5794 5798 5802 5803 5800 5792 5789 5791 5780 5771 5775 5775 5776 5777 5774 5771 5768 5766 5766 5766 5767 5767 5768 5767 5766 5765 5764 5764 5763 5762 5761 5760 5759 5757 5756 5756 5755 5754 5753 5752 5751 5750 5749 5748 5746 5746 5744 5743
5809 5806 5808 5805 5806 5801 5794 5790 5786 5783 5783 5790 5787 5784 5778 5773 5771 5770 5768 5768 5768 5768 5768 5768 5768 5767 5766 5765 5764 5763 5761 5760 5759 5758 5757 5756 5754 5753 5752 5751 5750 5749 5748 5747 5746 5745 5744 5743 5742
5808 5806 5809 5809 5805 5802 5797 5790 5787 5786 5792 5793 5789 5784 5779 5775 5773 5773 5773 5772 5771 5769 5769 5769 5769 5767 5766 5765 5764 5763 5761 5760 5759 5758 5757 5755 5754 5753 5751 5750 5749 5748 5747 5746 5745 5743 5742 5741 5740
5811 5808 5806 5805 5803 5801 5792 5789 5787 5785 5792 5789 5785 5781 5780 5778 5776 5774 5773 5772 5771 5771 5770 5770 5769 5768 5767 5765 5764 5763 5762 5760 5759 5758 5757 5756 5754 5753 5751 5749 5748 5747 5746 5745 5744 5742 5741 5740 5739
5814 5802 5797 5799 5799 5797 5793 5780 5783 5790 5791 5785 5783 5781 5780 5779 5778 5776 5776 5774 5774 5773 5773 5772 5771 5769 5767 5766 5765 5764 5762 5761 5760 5758 5758 5756 5754 5753 5751 5749 5748 5747 5746 5745 5743 5742 5740 5739 5738
5804 5787 5776 5790 5796 5796 5785 5766 5786 5793 5788 5782 5782 5782 5781 5780 5780 5780 5780 5778 5777 5775 5774 5773 5773 5770 5768 5767 5766 5764 5763 5761 5760 5759 5758 5756 5755 5753 5751 5749 5748 5747 5746 5744 5742 5741 5739 5737 5736
5782 5770 5771 5782 5796 5793 5783 5773 5787 5793 5789 5782 5783 5783 5782 5780 5781 5782 5782 5781 5779 5778 5776 5774 5773 5771 5769 5768 5766 5764 5763 5761 5760 5759 5758 5756 5755 5753 5751 5750 5748 5747 5745 5743 5742 5740 5738 5735 5734
5771 5773 5774 5776 5791 5790 5780 5778 5786 5791 5789 5785 5784 5783 5782 5781 5783 5785 5784 5783 5782 5780 5778 5776 5774 5772 5770 5768 5766 5763 5762 5761 5760 5759 5758 5756 5755 5753 5752 5750 5748 5746 5744 5742 5740 5738 5736 5735 5733
5791 5782 5777 5783 5795 5788 5780 5780 5785 5790 5789 5786 5784 5783 5783 5784 5787 5787 5786 5785 5782 5780 5778 5776 5774 5772 5770 5767 5764 5761 5759 5759 5759 5759 5757 5756 5755 5753 5752 5749 5747 5745 5743 5741 5739 5737 5735 5733 5732
5791 5781 5778 5784 5795 5788 5778 5779 5788 5791 5792 5792 5789 5787 5786 5785 5786 5786 5786 5785 5783 5781 5779 5777 5775 5773 5771 5769 5766 5764 5762 5760 5759 5758 5757 5756 5755 5753 5751 5749 5747 5744 5742 5740 5738 5736 5733 5731 5731
5786 5782 5781 5780 5786 5786 5778 5771 5781 5790 5795 5795 5795 5794 5792 5790 5788 5787 5787 5786 5784 5782 5780 5779 5776 5774 5773 5771 5768 5765 5762 5759 5757 5756 5755 5755 5754 5753 5751 5749 5747 5744 5742 5739 5737 5736 5733 5730 5729
5779 5795 5792 5786 5772 5760 5771 5749 5772 5782 5786 5792 5795 5795 5795 5795 5793 5791 5790 5788 5787 5785 5783 5780 5778 5776 5774 5771 5768 5764 5760 5756 5755 5755 5755 5755 5754 5752 5751 5749 5746 5744 5742 5739 5737 5736 5734 5731 5728
5791 5800 5792 5783 5769 5757 5762 5751 5763 5778 5779 5790 5798 5800 5800 5800 5798 5796 5794 5793 5791 5789 5786 5783 5779 5777 5775 5772 5769 5765 5761 5759 5757 5756 5754 5753 5753 5752 5750 5748 5746 5744 5741 5739 5737 5735 5734 5731 5729
5799 5788 5776 5764 5755 5742 5754 5749 5756 5772 5787 5796 5803 5805 5805 5804 5802 5799 5798 5795 5792 5791 5788 5784 5780 5778 5775 5772 5770 5766 5763 5760 5757 5755 5753 5752 5751 5751 5750 5748 5746 5743 5741 5739 5737 5735 5733 5732 5730
5789 5764 5739 5735 5727 5733 5755 5753 5762 5793 5803 5807 5809 5810 5810 5808 5804 5801 5797 5794 5792 5790 5789 5785 5782 5779 5777 5773 5770 5768 5765 5762 5759 5757 5754 5752 5750 5749 5748 5747 5745 5743 5741 5739 5737 5734 5732 5731 5728
5777 5768 5741 5727 5724 5733 5750 5751 5778 5805 5812 5815 5815 5814 5812 5809 5807 5804 5801 5798 5796 5793 5791 5787 5784 5780 5777 5774 5771 5769 5766 5763 5760 5758 5755 5753 5750 5749 5748 5746 5744 5743 5741 5739 5736 5733 5731 5729 5727
5771 5764 5768 5743 5736 5733 5741 5759 5784 5806 5808 5810 5811 5811 5810 5810 5809 5806 5804 5801 5799 5795 5792 5790 5785 5781 5778 5775 5772 5769 5766 5763 5760 5758 5756 5753 5751 5749 5748 5746 5743 5741 5739 5737 5735 5731 5729 5727 5725
5783 5768 5750 5737 5723 5724 5742 5753 5765 5789 5797 5803 5806 5807 5808 5810 5809 5808 5806 5803 5800 5797 5794 5790 5787 5783 5779 5776 5772 5769 5765 5763 5760 5757 5754 5752 5750 5748 5746 5744 5741 5739 5737 5735 5733 5730 5727 5725 5722
5767 5760 5747 5736 5739 5725 5726 5748 5789 5793 5799 5801 5806 5809 5810 5810 5810 5809 5807 5804 5801 5797 5792 5789 5786 5782 5778 5775 5772 5768 5764 5762 5759 5756 5754 5751 5748 5746 5744 5742 5739 5737 5734 5732 5730 5727 5725 5722 5719
5777 5764 5752 5743 5733 5732 5732 5752 5801 5801 5803 5805 5807 5809 5811 5811 5810 5808 5805 5802 5798 5795 5791 5787 5784 5781 5778 5774 5770 5766 5763 5759 5756 5754 5752 5750 5746 5744 5742 5740 5737 5734 5732 5729 5727 5724 5722 5719 5716